Flag for Kazakhstan Weather past 2 weeks in Shymkent, Kazakhstan

Now
86 °F

Sunny.


Feels Like: 83 °F
Forecast: 54 / 88 °F
Wind: 10 mph from Northeast

Location: Shymkent Airport

Current Time: Sep 3, 2014 at 1:21:50 PM

Latest Report: Sep 3, 2014 at 1:00 PM


Visibility: 10 mi

Pressure: 29.92 "Hg

Humidity: 11%

Dew point: 25 °F

Location of ShymkentLocation

Historic Weather in Shymkent — Graph

°F

Shymkent temperature yesterday

Maximum temperature yesterday: 93 °F (at 3:00 PM)
Minimum temperature yesterday: 59 °F (at 6:00 AM)
Average temperature yesterday: 76 °F

Past Weeks' High & Low Weather Summary

 TemperatureHumidityPressure
High104 °F (Aug 23, 4:00 PM)46% (Aug 26, 4:00 AM)29.95 "Hg (Aug 26, 4:00 AM)
Low57 °F (Sep 3, 7:00 AM)5% (Aug 24, 2:30 PM)29.65 "Hg (Aug 22, 1:00 AM)
Average84 °F17%29.80 "Hg
* Reported Aug 19 12:00 Noon — Sep 3 12:00 Noon, Shymkent, Weather by CustomWeather, © 2014

Note: Actual official high and low records may vary slightly from our data, if they occured in-between our weather recording intervals... More about our weather records

Advertising

Shymkent weather history for previous 24 hours

 ConditionsComfort  
Time TempWeatherWind HumidityBarometerVisibility
12:00 PM
Sep 3
84 °FPassing clouds.6 mph11%29.92 "HgN/A
11:30 AM81 °FPassing clouds.6 mph14%29.92 "HgN/A
11:00 AM77 °FSunny.3 mph21%29.92 "Hg10 mi
10:30 AM75 °FPassing clouds.3 mph22%29.92 "HgN/A
10:00 AM72 °FSunny.1 mph23%29.92 "Hg10 mi
9:30 AM68 °FSunny.No wind28%29.92 "Hg10 mi
9:00 AM68 °FSunny.No wind26%29.92 "Hg10 mi
8:30 AM66 °FSunny.1 mph28%29.92 "Hg10 mi
8:00 AM63 °FSunny.1 mph32%29.92 "Hg10 mi
7:30 AM59 °FSunny.No wind36%29.92 "Hg10 mi
7:00 AM57 °FSunny.3 mph36%29.92 "Hg10 mi
6:30 AM59 °FSunny.No wind36%29.92 "Hg10 mi
6:00 AM61 °FSunny.No wind31%29.89 "Hg10 mi
5:30 AM64 °FClear.3 mph26%29.89 "Hg10 mi
5:00 AM61 °FClear.1 mph29%29.89 "Hg10 mi
4:30 AM63 °FClear.3 mph30%29.89 "Hg10 mi
4:00 AM63 °FClear.6 mph30%29.89 "Hg10 mi
3:30 AM70 °FClear.1 mph18%29.89 "Hg10 mi
3:00 AM70 °FPassing clouds.3 mph20%29.89 "HgN/A
2:30 AM72 °FClear.6 mph17%29.89 "Hg10 mi
2:00 AM72 °FClear.6 mph19%29.89 "Hg10 mi
1:30 AM72 °FClear.8 mph19%29.89 "Hg10 mi
1:00 AM72 °FClear.6 mph19%29.89 "Hg10 mi
12:30 AM73 °FClear.6 mph17%29.89 "Hg10 mi
12:00 AM72 °FClear.6 mph19%29.89 "Hg10 mi
11:30 PM
Sep 2
72 °FClear.6 mph19%29.89 "Hg10 mi
11:00 PM72 °FPassing clouds.3 mph22%29.89 "HgN/A
10:30 PM75 °FClear.8 mph15%29.89 "Hg10 mi
10:00 PM75 °FClear.10 mph15%29.89 "Hg10 mi
9:30 PM77 °FClear.13 mph14%29.89 "Hg10 mi
9:00 PM79 °FClear.6 mph13%29.89 "Hg10 mi
8:30 PM81 °FClear.6 mph14%29.86 "Hg10 mi
8:00 PM82 °FClear.10 mph13%29.86 "Hg10 mi
7:30 PM84 °FClear.10 mph13%29.86 "Hg10 mi
7:00 PM84 °FClear.13 mph13%29.83 "Hg10 mi
6:30 PM84 °FSunny.10 mph13%29.83 "Hg10 mi
6:00 PM86 °FSunny.10 mph13%29.83 "Hg10 mi
5:30 PM88 °FSunny.10 mph13%29.83 "Hg10 mi
5:00 PM90 °FSunny.6 mph12%29.83 "Hg10 mi
4:30 PM91 °FSunny.6 mph13%29.83 "Hg10 mi
4:00 PM93 °FSunny.1 mph9%29.83 "Hg10 mi
3:30 PM93 °FSunny.1 mph9%29.83 "Hg10 mi
3:00 PM93 °FSunny.1 mph10%29.83 "Hg10 mi
2:30 PM90 °FSunny.1 mph13%29.86 "Hg10 mi
2:00 PM90 °FSunny.1 mph13%29.86 "Hg10 mi
1:30 PM90 °FSunny.No wind13%29.86 "Hg10 mi
1:00 PM88 °FSunny.3 mph13%29.86 "Hg10 mi
Weather by CustomWeather, © 2014

See weather overviewHow to use our weather pages